TimeCDT,TemperatureF,Dew PointF,Humidity,Sea Level PressureIn,VisibilityMPH,Wind Direction,Wind SpeedMPH,Gust SpeedMPH,PrecipitationIn,Events,Conditions,WindDirDegrees,DateUTC
12:15 AM,34.9,29.8,82,30.15,10.0,Calm,Calm,-,N/A,,Overcast,0,2012-11-03 05:15:00
12:34 AM,34.9,30.2,83,30.15,10.0,SE,3.5,-,N/A,,Overcast,140,2012-11-03 05:34:00
12:55 AM,35.1,29.8,81,30.16,10.0,Calm,Calm,-,N/A,,Overcast,0,2012-11-03 05:55:00
1:15 AM,34.9,30.0,82,30.15,10.0,Calm,Calm,-,N/A,,Overcast,0,2012-11-03 06:15:00
1:34 AM,34.7,29.8,82,30.15,10.0,Calm,Calm,-,N/A,,Overcast,0,2012-11-03 06:34:00
1:54 AM,34.2,30.0,85,30.15,10.0,Calm,Calm,-,N/A,,Overcast,0,2012-11-03 06:54:00
2:15 AM,34.0,30.0,85,30.15,10.0,Calm,Calm,-,N/A,,Overcast,0,2012-11-03 07:15:00
2:34 AM,34.0,30.0,85,30.15,10.0,Calm,Calm,-,N/A,,Overcast,0,2012-11-03 07:34:00
2:54 AM,33.8,30.4,87,30.15,10.0,Calm,Calm,-,N/A,,Overcast,0,2012-11-03 07:54:00
3:15 AM,34.0,30.7,88,30.15,10.0,Calm,Calm,-,N/A,,Overcast,0,2012-11-03 08:15:00
3:34 AM,34.0,30.9,89,30.16,10.0,Calm,Calm,-,N/A,,Overcast,0,2012-11-03 08:34:00
3:55 AM,33.8,31.1,90,30.15,10.0,Calm,Calm,-,N/A,,Overcast,0,2012-11-03 08:55:00
4:15 AM,34.0,31.1,89,30.15,10.0,Calm,Calm,-,N/A,,Overcast,0,2012-11-03 09:15:00
4:35 AM,34.2,31.1,89,30.15,10.0,Calm,Calm,-,N/A,,Overcast,0,2012-11-03 09:35:00
4:55 AM,34.3,31.5,89,30.16,10.0,Calm,Calm,-,N/A,,Overcast,0,2012-11-03 09:55:00
5:14 AM,34.2,31.3,89,30.16,10.0,Calm,Calm,-,N/A,,Overcast,0,2012-11-03 10:14:00
5:34 AM,34.3,31.1,88,30.16,10.0,Calm,Calm,-,N/A,,Overcast,0,2012-11-03 10:34:00
5:55 AM,34.3,31.1,88,30.16,10.0,Calm,Calm,-,N/A,,Overcast,0,2012-11-03 10:55:00
6:14 AM,34.7,31.1,87,30.17,10.0,Calm,Calm,-,N/A,,Overcast,0,2012-11-03 11:14:00
6:34 AM,34.7,31.3,87,30.17,10.0,Calm,Calm,-,N/A,,Overcast,0,2012-11-03 11:34:00
6:55 AM,34.7,31.6,89,30.17,10.0,Calm,Calm,-,N/A,,Overcast,0,2012-11-03 11:55:00
7:15 AM,34.7,31.1,87,30.17,10.0,Calm,Calm,-,N/A,,Overcast,0,2012-11-03 12:15:00
7:34 AM,34.7,31.1,87,30.16,10.0,SE,3.5,-,N/A,,Overcast,130,2012-11-03 12:34:00
7:54 AM,34.7,31.5,88,30.16,10.0,Calm,Calm,-,N/A,,Overcast,0,2012-11-03 12:54:00
8:15 AM,34.9,31.5,87,30.17,10.0,Calm,Calm,-,N/A,,Overcast,0,2012-11-03 13:15:00
8:34 AM,35.1,31.5,87,30.18,10.0,SE,5.8,-,N/A,,Overcast,140,2012-11-03 13:34:00
8:54 AM,35.2,31.6,87,30.18,10.0,SE,3.5,-,N/A,,Overcast,140,2012-11-03 13:54:00
9:15 AM,35.8,31.8,86,30.19,10.0,Calm,Calm,-,N/A,,Overcast,0,2012-11-03 14:15:00
9:34 AM,36.3,32.0,84,30.19,10.0,SE,3.5,-,N/A,,Overcast,140,2012-11-03 14:34:00
9:54 AM,36.9,32.0,83,30.19,10.0,SE,3.5,-,N/A,,Overcast,130,2012-11-03 14:54:00
10:15 AM,37.6,32.0,80,30.19,10.0,Calm,Calm,-,N/A,,Overcast,0,2012-11-03 15:15:00
10:35 AM,38.1,32.2,79,30.19,10.0,Calm,Calm,-,N/A,,Overcast,0,2012-11-03 15:35:00
10:54 AM,38.8,32.4,78,30.19,10.0,Calm,Calm,-,N/A,,Overcast,0,2012-11-03 15:54:00
11:14 AM,39.7,32.2,74,30.19,10.0,Calm,Calm,-,N/A,,Overcast,0,2012-11-03 16:14:00
11:35 AM,40.6,31.8,71,30.19,10.0,WSW,3.5,-,N/A,,Overcast,250,2012-11-03 16:35:00
11:54 AM,41.5,32.0,69,30.19,10.0,WSW,4.6,-,N/A,,Overcast,250,2012-11-03 16:54:00
12:14 PM,42.1,31.8,67,30.19,10.0,Calm,Calm,-,N/A,,Overcast,0,2012-11-03 17:14:00
12:35 PM,43.3,32.0,64,30.18,10.0,West,3.5,-,N/A,,Overcast,260,2012-11-03 17:35:00
12:54 PM,43.7,32.0,63,30.18,10.0,WSW,3.5,-,N/A,,Overcast,250,2012-11-03 17:54:00
1:15 PM,44.6,32.5,63,30.18,10.0,WSW,4.6,-,N/A,,Overcast,240,2012-11-03 18:15:00
1:34 PM,44.2,32.5,63,30.17,10.0,Calm,Calm,-,N/A,,Overcast,0,2012-11-03 18:34:00
1:55 PM,44.8,33.4,64,30.16,10.0,Calm,Calm,-,N/A,,Overcast,0,2012-11-03 18:55:00
2:14 PM,45.0,33.4,64,30.16,10.0,Calm,Calm,-,N/A,,Overcast,0,2012-11-03 19:14:00
2:34 PM,46.4,34.0,62,30.16,10.0,West,8.1,-,N/A,,Overcast,280,2012-11-03 19:34:00
2:55 PM,46.4,34.0,62,30.16,10.0,West,8.1,-,N/A,,Overcast,280,2012-11-03 19:55:00
3:14 PM,46.0,34.2,63,30.16,10.0,WNW,10.4,-,N/A,,Overcast,290,2012-11-03 20:14:00
3:35 PM,45.5,33.8,64,30.16,10.0,WNW,10.4,-,N/A,,Overcast,290,2012-11-03 20:35:00
3:55 PM,44.8,33.8,65,30.16,10.0,West,8.1,-,N/A,,Overcast,280,2012-11-03 20:55:00
4:15 PM,45.0,33.8,65,30.16,10.0,West,6.9,-,N/A,,Overcast,270,2012-11-03 21:15:00
4:34 PM,44.6,34.0,66,30.16,10.0,West,9.2,-,N/A,,Drizzle,260,2012-11-03 21:34:00
4:55 PM,42.3,36.0,78,30.17,7.0,West,9.2,-,N/A,,Drizzle,280,2012-11-03 21:55:00
5:15 PM,41.5,37.4,85,30.17,10.0,West,6.9,-,N/A,Rain,Light Rain,270,2012-11-03 22:15:00
5:34 PM,41.0,37.4,87,30.16,10.0,West,3.5,-,N/A,Rain,Light Rain,280,2012-11-03 22:34:00
5:54 PM,40.5,37.8,90,30.17,5.0,WNW,4.6,-,0.01,Rain,Light Rain,300,2012-11-03 22:54:00
6:15 PM,40.1,37.8,91,30.17,5.0,WNW,3.5,-,N/A,Rain,Rain,290,2012-11-03 23:15:00
6:34 PM,40.1,38.3,93,30.17,7.0,Calm,Calm,-,0.01,Rain,Light Rain,0,2012-11-03 23:34:00
6:55 PM,39.7,38.3,95,30.18,7.0,West,4.6,-,0.01,Rain,Rain,280,2012-11-03 23:55:00
7:14 PM,39.6,37.8,93,30.18,10.0,NW,4.6,-,N/A,Rain,Light Rain,320,2012-11-04 00:14:00
7:35 PM,38.7,37.0,94,30.19,7.0,North,4.6,-,0.01,Rain,Rain,350,2012-11-04 00:35:00
8:15 PM,37.9,36.7,95,30.19,7.0,Calm,Calm,-,N/A,Rain,Light Rain,0,2012-11-04 01:15:00
8:34 PM,37.9,36.9,96,30.19,5.0,Calm,Calm,-,0.01,Rain,Light Rain,0,2012-11-04 01:34:00
8:55 PM,37.9,37.0,97,30.19,5.0,Calm,Calm,-,0.01,Rain,Light Rain,0,2012-11-04 01:55:00
9:15 PM,37.4,36.5,97,30.19,7.0,NW,4.6,-,N/A,,Light Drizzle,320,2012-11-04 02:15:00
9:35 PM,37.4,36.1,95,30.20,7.0,WNW,5.8,-,N/A,,Overcast,290,2012-11-04 02:35:00
9:54 PM,36.9,35.6,95,30.20,7.0,WNW,4.6,-,N/A,,Overcast,300,2012-11-04 02:54:00
10:15 PM,36.7,35.6,96,30.20,7.0,NW,3.5,-,N/A,,Overcast,310,2012-11-04 03:15:00
10:35 PM,36.5,35.6,97,30.20,7.0,NW,4.6,-,N/A,,Overcast,320,2012-11-04 03:35:00
10:55 PM,36.5,35.2,95,30.20,5.0,NW,4.6,-,N/A,,Overcast,310,2012-11-04 03:55:00
11:15 PM,36.5,35.2,95,30.20,5.0,WNW,4.6,-,N/A,,Overcast,290,2012-11-04 04:15:00
11:35 PM,36.5,35.6,97,30.21,5.0,WNW,4.6,-,N/A,,Overcast,300,2012-11-04 04:35:00
11:55 PM,36.5,35.6,97,30.20,5.0,NW,3.5,-,N/A,,Overcast,310,2012-11-04 04:55:00